Weather History for Sand Island, Henderson Field, HI

Change the Weather History Date:

Tuesday, January 21, 2014

  Actual Average Record
Temperature  
Mean Temperature 62 °F -  
Max Temperature 68 °F - - ()
Min Temperature 57 °F - - ()
Degree Days  
Heating Degree Days 2    
Growing Degree Days 12 (Base 50)    
Moisture  
Dew Point 48 °F    
Average Humidity 60    
Maximum Humidity 82    
Minimum Humidity 47    
Precipitation  
Precipitation 0.03 in - - ()
Sea Level Pressure  
Sea Level Pressure 30.55 in    
Wind  
Wind Speed 18 mph (NW)    
Max Wind Speed 23 mph    
Max Gust Speed 33 mph    
Visibility 8 miles    
Events Rain    
T = Trace of Precipitation, MM = Missing Value Source: NWS Daily Summary

Daily Weather History Graph

Daily Weather History Graph

Search for Another Location

Airport:

Trip Planner

Search our weather history database for the weather conditions in past years. The results will help you decide how hot, cold, wet, or windy it might be!

Date:

Astronomy

Jan. 21, 2014 Rise Set
Actual Time 6:41 PM GMT 5:20 AM GMT
Civil Twilight 6:16 PM GMT 5:45 AM GMT
Nautical Twilight 5:47 PM GMT 6:14 AM GMT
Astronomical Twilight 5:19 PM GMT 6:42 AM GMT
Moon 9:40 AM GMT (1/21) 9:48 PM GMT (1/21)
Length of Visible Light 11h 29m
Length of Day
10h 39m
Waning Gibbous, 76% of the Moon is Illuminated
Jan 21
Waning Gibbous
Jan 24
Last Quarter
Jan 30
New
Feb 6
First Quarter
Feb 14
Full

Hourly Weather History & Observations

Time (GMT) Temp. Dew Point Humidity Pressure Visibility Wind Dir Wind Speed Gust Speed Precip Events Conditions
12:56 AM 68.0 °F 48.9 °F 50% 30.62 in 7.0 mi NW 19.6 mph 29.9 mph N/A   Scattered Clouds
1:56 AM 66.9 °F 48.9 °F 52% 30.62 in 8.0 mi NW 19.6 mph 31.1 mph N/A   Partly Cloudy
2:56 AM 66.2 °F 48.2 °F 52% 29.73 in 8.0 mi NW 17.3 mph 28.8 mph N/A   Scattered Clouds
3:56 AM 64.9 °F 47.8 °F 54% 30.67 in 7.0 mi NW 19.6 mph 28.8 mph N/A   Scattered Clouds
4:56 AM 63.9 °F 47.8 °F 56% 30.68 in 8.0 mi NW 16.1 mph 29.9 mph N/A   Partly Cloudy
5:56 AM 64.4 °F 46.4 °F 52% 29.80 in 9.0 mi NW 19.6 mph 26.5 mph N/A   Scattered Clouds
6:56 AM 63.0 °F 46.9 °F 56% 30.73 in 8.0 mi WNW 15.0 mph 31.1 mph N/A   Scattered Clouds
7:56 AM 63.9 °F 45.9 °F 52% 30.75 in 9.0 mi NNW 18.4 mph 28.8 mph 0.00 in   Scattered Clouds
8:56 AM 63.0 °F 45.9 °F 54% 30.77 in 10.0 mi NW 18.4 mph 26.5 mph N/A   Partly Cloudy
9:56 AM 63.0 °F 45.0 °F 52% 30.77 in 9.0 mi WNW 18.4 mph 27.6 mph N/A   Partly Cloudy
10:56 AM 63.0 °F 43.9 °F 50% 30.76 in 10.0 mi WNW 12.7 mph 23.0 mph N/A   Partly Cloudy
11:56 AM 60.8 °F 51.8 °F 72% 29.85 in 9.0 mi NW 17.3 mph 24.2 mph N/A Rain Light Rain
12:56 PM 59.0 °F 50.0 °F 72% 30.76 in 3.0 mi WNW 19.6 mph 33.4 mph 0.01 in   Haze
1:20 PM 57.2 °F 48.2 °F 72% 29.85 in 2.5 mi NW 17.3 mph 27.6 mph 0.02 in   Haze
1:27 PM 57.2 °F 51.8 °F 82% 29.84 in 8.0 mi WNW 15.0 mph 23.0 mph 0.02 in   Mostly Cloudy
1:56 PM 59.9 °F 48.9 °F 67% 30.75 in 10.0 mi NW 23.0 mph 32.2 mph 0.02 in   Partly Cloudy
2:56 PM 60.8 °F 51.8 °F 72% 29.84 in 9.0 mi NW 15.0 mph 28.8 mph N/A   Mostly Cloudy
3:56 PM 61.9 °F 50.0 °F 65% 30.75 in 10.0 mi WNW 19.6 mph 27.6 mph N/A   Scattered Clouds
4:56 PM 61.0 °F 50.9 °F 69% 30.77 in 8.0 mi WNW 15.0 mph 28.8 mph 0.00 in Rain Light Rain
5:56 PM 61.0 °F 50.0 °F 67% 30.79 in 10.0 mi NW 12.7 mph 28.8 mph 0.00 in   Partly Cloudy
6:56 PM 61.9 °F 50.0 °F 65% 30.82 in 8.0 mi NW 17.3 mph 29.9 mph 0.00 in Rain Light Rain
7:56 PM 63.0 °F 50.0 °F 63% 30.85 in 8.0 mi NW 19.6 mph 31.1 mph 0.00 in   Partly Cloudy
8:56 PM 64.9 °F 50.0 °F 58% 30.88 in 8.0 mi NW 17.3 mph 29.9 mph N/A   Partly Cloudy
9:56 PM 64.9 °F 48.9 °F 56% 30.89 in 9.0 mi NW 19.6 mph 27.6 mph N/A   Scattered Clouds
10:56 PM 65.8 °F 45.0 °F 47% 30.90 in 10.0 mi NW 18.4 mph 32.2 mph N/A   Partly Cloudy
11:56 PM 65.8 °F 46.9 °F 50% 30.89 in 9.0 mi NW 19.6 mph 31.1 mph N/A   Partly Cloudy